WB6TTB Weather Reports


Display with metric or nautical units.
time (UTC)temp
F
wind
direction
speed
MPH
gust
MPH
rain 1hr
in
rain 24hr
in
rain mn
in
humidity
%
barometer
mb
20260901203603 66 266 9.0 15.0 0.00 0.00 0.00 79 1015.7
20260901203003 66 267 9.0 14.0 0.00 0.00 0.00 80 1015.7
20260901202403 66 269 9.0 13.0 0.00 0.00 0.00 81 1015.8
20260901201803 66 270 9.0 14.0 0.00 0.00 0.00 82 1015.9
20260901201203 66 271 8.0 14.0 0.00 0.00 0.00 82 1015.8
20260901200603 65 270 8.0 12.0 0.00 0.00 0.00 84 1015.9
20260901200003 65 266 8.0 13.0 0.00 0.00 0.00 83 1015.8
20260901195403 66 265 9.0 15.0 0.00 0.00 0.00 83 1015.9
20260901194803 65 272 9.0 15.0 0.00 0.00 0.00 82 1015.9
20260901194204 66 273 9.0 14.0 0.00 0.00 0.00 83 1015.9
20260901193604 66 268 9.0 14.0 0.00 0.00 0.00 84 1015.9
20260901193004 64 266 9.0 13.0 0.00 0.00 0.00 86 1016.0
20260901192404 63 266 10.0 13.0 0.00 0.00 0.00 87 1016.0
20260901191203 64 271 8.0 13.0 0.00 0.00 0.00 86 1016.0
20260901190603 63 269 8.0 12.0 0.00 0.00 0.00 87 1015.9
20260901190004 64 269 7.0 15.0 0.00 0.00 0.00 86 1015.9
20260901185404 64 268 7.0 15.0 0.00 0.00 0.00 86 1015.9
20260901184803 64 271 6.0 11.0 0.00 0.00 0.00 86 1015.9
20260901184203 64 270 6.0 13.0 0.00 0.00 0.00 84 1015.9
20260901183603 64 269 6.0 12.0 0.00 0.00 0.00 85 1016.0
20260901183003 63 267 7.0 12.0 0.00 0.00 0.00 87 1015.9
20260901182403 62 267 6.0 10.0 0.00 0.00 0.00 87 1015.9
20260901181803 62 270 7.0 11.0 0.00 0.00 0.00 88 1015.9
20260901181203 63 268 7.0 12.0 0.00 0.00 0.00 87 1015.9
20260901180603 63 267 7.0 12.0 0.00 0.00 0.00 85 1016.0
20260901180003 64 269 8.0 15.0 0.00 0.00 0.00 85 1015.8
20260901175403 64 268 8.0 14.0 0.00 0.00 0.00 85 1015.7
20260901174803 64 270 8.0 12.0 0.00 0.00 0.00 84 1015.8
20260901174203 63 270 8.0 12.0 0.00 0.00 0.00 86 1015.7
20260901173603 62 271 7.0 12.0 0.00 0.00 0.00 89 1015.7
20260901173004 62 269 7.0 11.0 0.00 0.00 0.00 89 1015.6
20260901172404 62 267 7.0 12.0 0.00 0.00 0.00 89 1015.5
20260901171804 62 270 7.0 12.0 0.00 0.00 0.00 89 1015.5
20260901171204 62 269 6.0 10.0 0.00 0.00 0.00 90 1015.5
20260901170604 62 270 7.0 10.0 0.00 0.00 0.00 90 1015.5
20260901170004 62 272 7.0 11.0 0.00 0.00 0.00 90 1015.4
20260901165403 62 272 6.0 10.0 0.00 0.00 0.00 91 1015.4
20260901164803 62 273 6.0 10.0 0.00 0.00 0.00 92 1015.2
20260901164203 61 276 6.0 10.0 0.00 0.00 0.00 92 1015.2
20260901163603 61 273 6.0 11.0 0.00 0.00 0.00 93 1015.1
20260901163003 61 271 6.0 11.0 0.00 0.00 0.00 93 1015.2
20260901162403 61 270 6.0 11.0 0.00 0.00 0.00 93 1015.1
20260901161803 61 270 7.0 11.0 0.00 0.00 0.00 94 1015.0
20260901161203 60 270 7.0 11.0 0.00 0.00 0.00 95 1015.0
20260901160603 60 272 7.0 11.0 0.00 0.00 0.00 94 1015.0
20260901160003 60 272 7.0 12.0 0.00 0.00 0.00 95 1015.0
20260901155403 60 271 7.0 12.0 0.00 0.00 0.00 96 1014.9
20260901154803 60 271 8.0 12.0 0.00 0.00 0.00 96 1014.9
20260901154203 60 271 8.0 12.0 0.00 0.00 0.00 97 1014.9
20260901153603 59 269 7.0 12.0 0.00 0.00 0.00 97 1014.8
20260901153003 59 270 6.0 9.0 0.00 0.00 0.00 98 1014.7
20260901152403 59 271 7.0 11.0 0.00 0.00 0.00 98 1014.6
20260901151804 59 268 6.0 11.0 0.00 0.00 0.00 98 1014.6
20260901151204 58 266 6.0 10.0 0.00 0.00 0.00 98 1014.5
20260901150604 58 270 7.0 11.0 0.00 0.00 0.00 98 1014.5
20260901150004 58 269 7.0 10.0 0.00 0.00 0.00 98 1014.4
20260901145403 58 268 7.0 11.0 0.00 0.00 0.00 98 1014.3
20260901144803 58 266 7.0 11.0 0.00 0.00 0.00 98 1014.3
20260901144203 58 267 6.0 10.0 0.00 0.00 0.00 98 1014.2
20260901143603 58 267 6.0 10.0 0.00 0.00 0.00 98 1014.1
20260901143003 58 267 5.0 8.0 0.00 0.00 0.00 98 1014.0
20260901142403 58 268 5.0 9.0 0.00 0.00 0.00 98 1014.0
20260901141803 58 271 6.0 9.0 0.00 0.00 0.00 98 1013.9
20260901141203 58 270 6.0 11.0 0.00 0.00 0.00 98 1013.8
20260901140603 58 270 6.0 11.0 0.00 0.00 0.00 97 1013.8
20260901140004 58 269 6.0 9.0 0.00 0.00 0.00 97 1013.7
20260901135403 58 264 5.0 9.0 0.00 0.00 0.00 97 1013.7
20260901134803 58 266 5.0 8.0 0.00 0.00 0.00 97 1013.6
20260901134203 58 266 5.0 9.0 0.00 0.00 0.00 97 1013.6
20260901133603 58 267 5.0 9.0 0.00 0.00 0.00 97 1013.5
20260901133003 58 270 5.0 8.0 0.00 0.00 0.00 97 1013.4
20260901132403 58 270 5.0 9.0 0.00 0.00 0.00 97 1013.4
20260901131803 58 266 5.0 9.0 0.00 0.00 0.00 97 1013.4
20260901131203 58 263 5.0 9.0 0.00 0.00 0.00 96 1013.3
20260901130604 58 265 5.0 9.0 0.00 0.00 0.00 96 1013.1
20260901130004 58 264 4.0 9.0 0.00 0.00 0.00 96 1013.2
20260901125404 58 267 4.0 9.0 0.00 0.00 0.00 96 1013.1
20260901124804 58 265 4.0 8.0 0.00 0.00 0.00 96 1013.1
20260901124204 58 268 4.0 8.0 0.00 0.00 0.00 96 1013.2
20260901123604 58 271 5.0 10.0 0.00 0.00 0.00 96 1013.3
20260901123004 58 268 5.0 10.0 0.00 0.00 0.00 96 1013.1
20260901122403 58 264 4.0 8.0 0.00 0.00 0.00 96 1013.1
20260901121803 58 263 4.0 7.0 0.00 0.00 0.00 96 1013.0
20260901121203 58 269 4.0 7.0 0.00 0.00 0.00 96 1012.9
20260901120603 58 268 4.0 8.0 0.00 0.00 0.00 96 1012.9
20260901120004 58 268 4.0 8.0 0.00 0.00 0.00 96 1013.0
20260901115403 58 270 4.0 9.0 0.00 0.00 0.00 96 1013.0
20260901114803 58 267 4.0 9.0 0.00 0.00 0.00 96 1013.1
20260901114203 58 270 4.0 8.0 0.00 0.00 0.00 96 1013.0
20260901113603 58 266 3.0 7.0 0.00 0.00 0.00 96 1013.0
20260901113003 58 260 3.0 8.0 0.00 0.00 0.00 96 1013.1
20260901112403 58 263 3.0 7.0 0.00 0.00 0.00 96 1013.3
20260901111803 58 262 4.0 7.0 0.00 0.00 0.00 96 1013.2
20260901111203 58 266 5.0 9.0 0.00 0.00 0.00 96 1013.3
20260901110603 58 268 6.0 10.0 0.00 0.00 0.00 96 1013.3
20260901110003 58 266 5.0 9.0 0.00 0.00 0.00 96 1013.3
20260901105403 58 269 5.0 11.0 0.00 0.00 0.00 96 1013.3
20260901104804 58 268 6.0 11.0 0.00 0.00 0.00 96 1013.2
20260901104204 58 265 6.0 11.0 0.00 0.00 0.00 96 1013.1
20260901103604 58 263 5.0 9.0 0.00 0.00 0.00 96 1013.1
20260901103004 58 268 6.0 10.0 0.00 0.00 0.00 96 1013.1
20260901102404 58 264 6.0 11.0 0.00 0.00 0.00 96 1013.1
20260901101804 58 265 6.0 11.0 0.00 0.00 0.00 96 1013.0
20260901101204 58 265 5.0 9.0 0.00 0.00 0.00 96 1013.0
20260901100603 58 265 5.0 10.0 0.00 0.00 0.00 96 1013.0
20260901100004 58 267 5.0 9.0 0.00 0.00 0.00 96 1013.0
20260901095403 58 266 5.0 8.0 0.00 0.00 0.00 96 1012.9
20260901094804 58 268 6.0 11.0 0.00 0.00 0.00 96 1013.0
20260901094203 58 268 5.0 10.0 0.00 0.00 0.00 96 1013.0
20260901093603 58 270 5.0 8.0 0.00 0.00 0.00 97 1012.9
20260901093003 58 270 5.0 9.0 0.00 0.00 0.00 97 1013.0
20260901092403 58 270 5.0 9.0 0.00 0.00 0.00 97 1013.0
20260901091803 58 268 5.0 8.0 0.00 0.00 0.00 96 1013.0
20260901091203 58 267 4.0 7.0 0.00 0.00 0.00 96 1013.0
20260901090603 58 268 4.0 7.0 0.00 0.00 0.00 96 1013.1
20260901090003 58 268 5.0 8.0 0.00 0.00 0.00 96 1013.0
20260901085403 58 269 5.0 8.0 0.00 0.00 0.00 96 1013.0
20260901084803 58 268 6.0 10.0 0.00 0.00 0.00 96 1013.0
20260901084203 58 269 6.0 10.0 0.00 0.00 0.00 96 1013.0
20260901083604 58 267 6.0 9.0 0.00 0.00 0.00 96 1012.9
20260901083004 58 268 6.0 10.0 0.00 0.00 0.00 96 1012.9
20260901082404 58 269 6.0 10.0 0.00 0.00 0.00 95 1012.9
20260901081804 58 269 6.0 9.0 0.00 0.00 0.00 95 1013.0
20260901081204 58 269 5.0 10.0 0.00 0.00 0.00 95 1012.9
20260901080603 58 267 5.0 10.0 0.00 0.00 0.00 95 1012.9
20260901080004 58 265 6.0 11.0 0.00 0.00 0.00 95 1012.9
20260901075403 58 267 6.0 11.0 0.00 0.00 0.00 95 1012.9
20260901074804 58 269 6.0 11.0 0.00 0.00 0.00 95 1012.9
20260901074204 58 269 5.0 11.0 0.00 0.00 0.00 95 1013.0
20260901073603 58 268 5.0 9.0 0.00 0.00 0.00 95 1013.0
20260901073004 58 268 5.0 9.0 0.00 0.00 0.00 95 1013.0
20260901072403 58 269 6.0 11.0 0.00 0.00 0.00 95 1012.9
20260901071804 58 270 6.0 11.0 0.00 0.00 0.00 95 1012.9
20260901071203 58 270 7.0 11.0 0.00 0.00 0.00 95 1012.9
20260901070603 58 269 6.0 11.0 0.00 0.00 0.00 95 1012.9
20260901070003 58 267 6.0 11.0 0.00 0.00 0.00 95 1013.0
20260901065403 58 267 6.0 11.0 0.00 0.00 0.00 95 1013.0
20260901064803 58 268 6.0 11.0 0.00 0.00 0.00 95 1012.9
20260901064203 58 267 6.0 11.0 0.00 0.00 0.00 95 1013.0
20260901063603 58 267 6.0 11.0 0.00 0.00 0.00 95 1012.9
20260901063003 58 267 6.0 10.0 0.00 0.00 0.00 94 1012.9
20260901062403 58 265 7.0 11.0 0.00 0.00 0.00 94 1013.0
20260901061804 58 267 7.0 10.0 0.00 0.00 0.00 94 1013.0
20260901061204 58 269 7.0 12.0 0.00 0.00 0.00 93 1012.9
20260901060604 58 270 7.0 12.0 0.00 0.00 0.00 93 1012.9
20260901060004 58 270 7.0 12.0 0.00 0.00 0.00 93 1013.0
20260901055404 58 269 6.0 11.0 0.00 0.00 0.00 93 1013.0
20260901054803 58 269 6.0 10.0 0.00 0.00 0.00 93 1013.1
20260901054203 58 268 5.0 8.0 0.00 0.00 0.00 93 1013.2
20260901053603 58 269 6.0 11.0 0.00 0.00 0.00 92 1013.2
20260901053003 58 268 6.0 10.0 0.00 0.00 0.00 92 1013.3
20260901052403 58 269 6.0 10.0 0.00 0.00 0.00 92 1013.3
20260901051803 58 269 5.0 10.0 0.00 0.00 0.00 92 1013.3
20260901051203 58 270 5.0 9.0 0.00 0.00 0.00 91 1013.3
20260901050603 58 268 5.0 10.0 0.00 0.00 0.00 91 1013.3
20260901050003 58 268 5.0 13.0 0.00 0.00 0.00 91 1013.3
20260901045403 58 271 5.0 13.0 0.00 0.00 0.00 92 1013.3
20260901044803 58 268 6.0 9.0 0.00 0.00 0.00 92 1013.1
20260901044203 58 268 6.0 11.0 0.00 0.00 0.00 93 1013.1
20260901043603 58 268 6.0 11.0 0.00 0.00 0.00 92 1013.1
20260901043003 58 268 6.0 9.0 0.00 0.00 0.00 92 1013.2
20260901042403 58 269 6.0 12.0 0.00 0.00 0.00 93 1013.1
20260901041803 58 270 7.0 12.0 0.00 0.00 0.00 93 1013.0
20260901041203 58 265 6.0 11.0 0.00 0.00 0.00 92 1013.0
20260901040604 58 269 6.0 11.0 0.00 0.00 0.00 92 1012.9
20260901040004 58 272 7.0 11.0 0.00 0.00 0.00 92 1012.9
20260901035404 58 269 8.0 14.0 0.00 0.00 0.00 91 1012.9
20260901034804 58 269 7.0 14.0 0.00 0.00 0.00 91 1012.7
20260901034204 58 271 6.0 11.0 0.00 0.00 0.00 90 1012.7
20260901033604 58 273 6.0 11.0 0.00 0.00 0.00 90 1012.6
20260901033004 58 268 6.0 12.0 0.00 0.00 0.00 90 1012.6
20260901032403 58 269 7.0 12.0 0.00 0.00 0.00 89 1012.5
20260901031803 58 269 8.0 12.0 0.00 0.00 0.00 89 1012.4
20260901031203 58 269 7.0 12.0 0.00 0.00 0.00 89 1012.4
20260901030603 58 266 6.0 12.0 0.00 0.00 0.00 89 1012.3
20260901030003 58 264 6.0 13.0 0.00 0.00 0.00 89 1012.2
20260901025403 58 265 7.0 13.0 0.00 0.00 0.00 89 1012.2
20260901024803 59 266 8.0 13.0 0.00 0.00 0.00 89 1012.2
20260901024203 59 267 7.0 13.0 0.00 0.00 0.00 88 1012.3
20260901023603 59 269 7.0 13.0 0.00 0.00 0.00 87 1012.3
20260901023003 59 268 7.0 13.0 0.00 0.00 0.00 87 1012.3
20260901022403 59 264 7.0 15.0 0.00 0.00 0.00 88 1012.2
20260901021803 59 265 8.0 17.0 0.00 0.00 0.00 87 1012.2
20260901021203 60 269 8.0 17.0 0.00 0.00 0.00 88 1012.2
20260901020603 60 271 8.0 12.0 0.00 0.00 0.00 88 1012.2
20260901020003 60 271 7.0 14.0 0.00 0.00 0.00 87 1012.2
20260901015403 60 269 6.0 12.0 0.00 0.00 0.00 86 1012.2
20260901014804 60 270 6.0 11.0 0.00 0.00 0.00 87 1012.3
20260901014204 60 265 8.0 16.0 0.00 0.00 0.00 87 1012.4
20260901013604 60 264 9.0 16.0 0.00 0.00 0.00 86 1012.3
20260901013004 60 264 9.0 15.0 0.00 0.00 0.00 85 1012.2
20260901012404 61 268 9.0 15.0 0.00 0.00 0.00 84 1012.3
20260901011803 61 268 9.0 14.0 0.00 0.00 0.00 84 1012.2
20260901011203 61 267 10.0 17.0 0.00 0.00 0.00 85 1012.2
20260901010603 60 265 10.0 17.0 0.00 0.00 0.00 86 1012.2
20260901010004 60 264 10.0 15.0 0.00 0.00 0.00 86 1012.2
20260901005403 60 265 11.0 17.0 0.00 0.00 0.00 87 1012.2
20260901004803 60 264 11.0 17.0 0.00 0.00 0.00 87 1012.2
20260901004203 60 263 10.0 16.0 0.00 0.00 0.00 87 1012.2
20260901003603 60 263 10.0 17.0 0.00 0.00 0.00 87 1012.2
20260901003003 60 267 10.0 17.0 0.00 0.00 0.00 87 1012.3
20260901002403 60 268 10.0 17.0 0.00 0.00 0.00 87 1012.3
20260901001803 60 267 10.0 15.0 0.00 0.00 0.00 88 1012.3
20260901001203 60 269 9.0 14.0 0.00 0.00 0.00 90 1012.3
20260901000603 60 269 10.0 16.0 0.00 0.00 0.00 91 1012.3
20260901000004 60 269 10.0 18.0 0.00 0.00 0.00 91 1012.5
20260831235403 60 272 10.0 18.0 0.00 0.00 0.00 91 1012.5
20260831234803 60 271 9.0 14.0 0.00 0.00 0.00 91 1012.5
20260831234203 60 269 9.0 14.0 0.00 0.00 0.00 91 1012.5
20260831233603 60 267 9.0 15.0 0.00 0.00 0.00 91 1012.6
20260831233004 60 269 10.0 17.0 0.00 0.00 0.00 90 1012.5
20260831232404 60 270 9.0 15.0 0.00 0.00 0.00 90 1012.4
20260831231804 60 269 9.0 15.0 0.00 0.00 0.00 90 1012.5
20260831231204 60 268 9.0 15.0 0.00 0.00 0.00 90 1012.6
20260831230603 60 268 9.0 17.0 0.00 0.00 0.00 90 1012.7
20260831230004 60 270 9.0 17.0 0.00 0.00 0.00 90 1012.7
20260831225403 60 267 9.0 15.0 0.00 0.00 0.00 90 1012.8
20260831224803 60 266 10.0 15.0 0.00 0.00 0.00 90 1012.8
20260831224203 60 269 10.0 15.0 0.00 0.00 0.00 90 1012.8
20260831223603 60 268 10.0 17.0 0.00 0.00 0.00 90 1012.8
20260831223003 60 268 10.0 17.0 0.00 0.00 0.00 89 1012.9
20260831222403 61 269 9.0 14.0 0.00 0.00 0.00 88 1012.9
20260831221803 61 269 10.0 18.0 0.00 0.00 0.00 89 1013.0
20260831221203 61 268 10.0 18.0 0.00 0.00 0.00 89 1013.0
20260831220603 61 268 10.0 17.0 0.00 0.00 0.00 89 1013.1
20260831220003 60 268 10.0 17.0 0.00 0.00 0.00 89 1013.1
20260831215403 60 268 9.0 16.0 0.00 0.00 0.00 90 1013.2
20260831214803 60 268 9.0 15.0 0.00 0.00 0.00 90 1013.3
20260831214203 60 269 10.0 15.0 0.00 0.00 0.00 90 1013.2
20260831213603 60 268 10.0 15.0 0.00 0.00 0.00 90 1013.3
20260831213003 60 269 10.0 15.0 0.00 0.00 0.00 90 1013.3
20260831212403 60 269 10.0 15.0 0.00 0.00 0.00 89 1013.4
20260831211804 60 269 9.0 14.0 0.00 0.00 0.00 90 1013.5
20260831211204 60 269 10.0 14.0 0.00 0.00 0.00 90 1013.5
20260831210604 60 271 10.0 16.0 0.00 0.00 0.00 90 1013.5
20260831210005 60 271 10.0 16.0 0.00 0.00 0.00 90 1013.6
20260831205403 60 267 10.0 16.0 0.00 0.00 0.00 91 1013.5
20260831204804 59 269 10.0 16.0 0.00 0.00 0.00 91 1013.5
20260831204203 59 271 10.0 16.0 0.00 0.00 0.00 90 1013.5